[[{"header":{"parameterUnit":"m.s-1","parameterCategory":1,"la1":30.2991,"la2":30.254,"lo1":-89.0895,"lo2":-89.0444,"dy":0.0017,"dx":0.0017,"nx":28,"ny":28,"refTime":"2024-07-02T09:00:00:Z","depth":0,"parameterNumber":2,"parameterNumberName":"U-component_of_WINDS"},"data":[0,0,0,0,0,0,0,0,0,0,0,0,0,0,0,0,0,0,0,0,0,0,0,0,0,0,0,0,0,0,0,0,0,0,0,0,0,0,0,0,0,0,0,0,0,0,0,0,0,0,0,0,0,0,0,0,0,0,0.9878,0.9878,0,0.9911,0.9911,0.9912,0.9877,0.9876,0.9875,0.9873,0.991,0.9912,0.9914,0,0,0,0,0,0,0,0,0,0,0,0,0,0.9785,0.9786,0.9878,0.9878,0.9879,0.9911,0.9911,0.9912,0.9877,0.9876,0.9874,0.9873,0.9909,0.9912,0.9914,0,0,0,0,0,0,0,0,0,0,0,0,0,0.9822,0.9787,0.9878,0.9865,0.9864,0.9911,0.9911,0.9912,0.9878,0.9876,0.9874,0.9872,0.9908,0.9911,0.9915,0.9976,0,0,0.9925,0.9926,0,0,0,0,0,0,0,0,0.982,0.9826,0.9867,0.9866,0.9865,0.9888,0.9892,0.9933,0.9878,0.9873,0.9873,0.9871,0.9904,0.9908,0.9919,0.9978,0.9979,0.9925,0.9927,0.9929,0.993,0,0,0,0,0,0,0,0.9818,0.9824,0.9891,0.9867,0.9867,0.9858,0.9861,0.99,0.99,0.9873,0.9871,0.9875,0.9904,0.9915,0.9919,0.998,0.9925,0.9928,0.993,0.9932,1.0087,1.0089,0,0,0,0,0,0,0.9816,0.9822,0.989,0.9892,0.9837,0.9861,0.9865,0.9883,0.9899,0.99,0.9877,0.9873,0.9911,0.9915,0.992,0.9991,0.9929,0.9932,0.9934,1.0085,1.0088,1.009,0,0,0,0,0,0,0.9814,0.9823,0.9889,0.9856,0.9864,0.9865,0.9885,0.9884,0.9896,0.9902,0.9902,0.9889,0.9909,0.9916,0.9961,0.9992,0.9933,0.9936,1.0082,1.0086,1.0089,1.0134,0,0,0,0,0,0,0.9812,0.9822,0.9846,0.9857,0.9866,0.9929,0.9887,0.9887,0.9902,0.9898,0.9913,0.9914,0.9908,0.9957,0.9965,0.9995,0.9939,1.008,1.0084,1.0088,1.013,1.0138,1.0145,0,0,0,0,0,0.9809,0.9858,0.9847,0.9855,0.9895,0.9931,0.9936,0.9928,0.9904,0.9928,0.9931,0.9913,0.9987,0.9962,0.997,1.0002,1.0078,1.0083,1.0087,1.0126,1.0136,1.0145,0,0,0,0,0,0,0.9852,0.986,0.9847,0.9902,0.9916,0.9925,0.9955,0.994,0.9962,0.9957,0.9947,0.9951,0.9998,1.0005,0.9977,1.0061,1.0029,1.0035,1.0055,1.0065,1.0072,1.007,0.9942,0,0,0,0,0,0.9867,0.9896,0.9901,0.9949,0.9956,0.9954,0.997,0.9962,0.9976,0.9982,0.9989,1.0004,1.003,1.0048,1.0073,1.013,1.0132,1.0156,1.0164,1.0171,1.0177,1.0205,1.0215,1.0106,1.0106,1.0105,0,0,0.9901,0.9908,0.9927,0.9957,0.9967,0.9996,0.9959,0.9993,1.0014,0.9988,1.003,1.0035,1.0051,1.0103,1.0126,1.011,1.0207,1.0177,1.0182,1.0184,1.0211,1.0221,1.0231,1.0109,1.0108,1.0108,0,0,0.9976,0.9985,1.0024,1.0034,1.0049,1.0047,1.0056,1.0067,1.0069,1.0111,1.0091,1.0116,1.0163,1.0174,1.0186,1.0261,1.0245,1.027,1.0311,1.0339,1.0348,1.0355,1.0381,1.039,1.0276,1.0276,1.0276,0,1.0016,1.0058,1.0047,1.008,1.0093,1.0069,1.0108,1.0119,1.0141,1.0151,1.0132,1.0187,1.0197,1.0249,1.0267,1.0278,1.0288,1.0268,1.0347,1.0355,1.0362,1.0386,1.0395,1.0279,1.0278,1.0278,1.0278,0,1.0105,1.0135,1.0165,1.0185,1.0201,1.0238,1.0232,1.025,1.024,1.0239,1.0282,1.0291,1.0316,1.0328,1.032,1.0379,1.0368,1.0349,1.0316,1.0375,1.0397,1.0407,1.0283,1.0282,1.0281,1.028,0,0,1.021,1.0221,1.0232,1.024,1.0253,1.0275,1.031,1.0333,1.0348,1.0363,1.0391,1.0429,1.041,1.0424,1.0416,1.0441,1.0497,1.0418,1.0418,1.0431,1.056,1.0574,1.0585,1.0487,1.0488,1.049,1.0559,0,1.0284,1.0343,1.0332,1.0389,1.0415,1.0391,1.042,1.0431,1.0431,1.0453,1.0453,1.048,1.0454,1.0461,1.0484,1.0486,1.0523,1.0481,1.0512,1.0513,1.0508,1.0597,1.0613,1.0677,1.0567,1.0569,1.057,0,1.0379,1.0396,1.0455,1.046,1.0471,1.0498,1.0516,1.0538,1.0549,1.0547,1.056,1.0547,1.0581,1.0547,1.0592,1.0563,1.0575,1.0578,1.058,1.0582,1.0545,1.0601,1.0698,1.0707,1.0584,1.0583,1.0582,0,1.0448,1.0485,1.0525,1.0532,1.054,1.0559,1.0564,1.0573,1.0586,1.0602,1.0611,1.0632,1.0643,1.0659,1.0651,1.0628,1.0697,1.0664,1.0696,1.0696,1.0712,1.0711,1.0811,1.0721,1.0721,1.0721,1.072,0,1.0531,1.0568,1.0555,1.0579,1.0619,1.0606,1.0646,1.0647,1.0655,1.0679,1.0659,1.0682,1.0671,1.0693,1.0687,1.0724,1.073,1.0729,1.0727,1.073,1.073,1.0738,1.0733,1.0723,1.0723,1.0722,1.0722,0,1.0616,1.0608,1.0649,1.0652,1.0654,1.0683,1.0686,1.0708,1.0705,1.0735,1.0741,1.0737,1.0762,1.0755,1.0783,1.0779,1.0825,1.0818,1.0821,1.0819,1.0851,1.0847,1.0959,1.0972,1.0874,1.0875,1.0876,0,1.0669,1.0696,1.0701,1.0715,1.072,1.0743,1.0756,1.0743,1.0757,1.077,1.079,1.0812,1.083,1.0869,1.0869,1.0889,1.0881,1.0919,1.0885,1.0886,1.088,1.0879,1.088,1.0926,1.0927,1.0928,1.0929,0,1.0764,1.0758,1.0777,1.0794,1.0809,1.0822,1.0833,1.0846,1.0834,1.085,1.0874,1.0887,1.0913,1.0934,1.0952,1.0957,1.0941,1.0939,1.0948,1.0951,1.0951,1.095,1.0839,1.0937,1.0936,1.0936,1.0935,1.0935,1.0834,1.0856,1.0862,1.0882,1.0889,1.0899,1.0919,1.0917,1.0936,1.0955,1.0947,1.0974,1.0982,1.1003,1.101,1.103,1.1016,1.1029,1.1032,1.1035,1.1038,1.0948,1.1034,1.1033,1.1033,1.1033,1.1033,0,1.0927,1.0928,1.0947,1.0962,1.0978,1.096,1.097,1.0985,1.1008,1.1016,1.1032,1.1058,1.1078,1.1078,1.1097,1.1113,1.1106,1.1119,1.1117,1.1118,1.105,1.1041,1.1124,1.1124,1.1124,1.1124,1.1124,1.1124,1.0977,1.1012,1.1006,1.1044,1.1046,1.107,1.1078,1.1087,1.1093,1.1122,1.1138,1.1137,1.1141,1.116,1.1177,1.1176,1.1184,1.1199,1.1195,1.1132,1.1123,1.1114,1.1105,1.1201,1.1201,1.1261,1.1262,1.1262]},{"header":{"parameterUnit":"m.s-1","parameterCategory":1,"la1":30.2991,"la2":30.254,"lo1":-89.0895,"lo2":-89.0444,"dy":0.0017,"dx":0.0017,"nx":28,"ny":28,"refTime":"2024-07-02T09:00:00:Z","depth":0,"parameterNumber":3,"parameterNumberName":"V-component_of_WINDS"},"data":[0,0,0,0,0,0,0,0,0,0,0,0,0,0,0,0,0,0,0,0,0,0,0,0,0,0,0,0,0,0,0,0,0,0,0,0,0,0,0,0,0,0,0,0,0,0,0,0,0,0,0,0,0,0,0,0,0,0,4.7224,4.7225,0,4.7297,4.7297,4.7298,4.7255,4.7253,4.7251,4.7249,4.7316,4.732,4.7323,0,0,0,0,0,0,0,0,0,0,0,0,0,4.7041,4.7045,4.7224,4.7225,4.7226,4.7296,4.7297,4.7298,4.7256,4.7253,4.7251,4.7248,4.7315,4.7319,4.7324,0,0,0,0,0,0,0,0,0,0,0,0,0,4.7117,4.7046,4.7224,4.7213,4.7213,4.7296,4.7297,4.7299,4.7256,4.7253,4.725,4.7247,4.7313,4.7319,4.7324,4.7419,0,0,4.7341,4.7343,0,0,0,0,0,0,0,0,4.7113,4.7124,4.7214,4.7214,4.7214,4.7264,4.7257,4.7339,4.7257,4.724,4.7249,4.7246,4.7301,4.7307,4.7327,4.7423,4.7425,4.7342,4.7345,4.7347,4.7349,0,0,0,0,0,0,0,4.7108,4.7121,4.7252,4.7215,4.7215,4.7202,4.721,4.7272,4.7286,4.7241,4.7238,4.7248,4.73,4.7322,4.7328,4.7426,4.7341,4.7346,4.735,4.7352,4.7602,4.7605,0,0,0,0,0,0,4.7104,4.7117,4.725,4.7255,4.7155,4.7208,4.7217,4.7251,4.7285,4.7288,4.725,4.7245,4.7314,4.7322,4.7331,4.7443,4.7347,4.7352,4.7356,4.7599,4.7603,4.7606,0,0,0,0,0,0,4.7101,4.7117,4.7247,4.7185,4.7201,4.7215,4.7253,4.7254,4.7276,4.7293,4.7294,4.727,4.7312,4.7323,4.7398,4.7445,4.7355,4.736,4.7595,4.76,4.7604,4.767,0,0,0,0,0,0,4.7096,4.7116,4.7154,4.7186,4.7204,4.7316,4.7257,4.7258,4.7286,4.7281,4.7312,4.7314,4.731,4.739,4.7403,4.7451,4.7364,4.759,4.7597,4.7603,4.7664,4.7676,4.7688,0,0,0,0,0,4.7089,4.7168,4.7156,4.7172,4.7253,4.7319,4.7329,4.7325,4.729,4.7327,4.7338,4.7313,4.7438,4.7398,4.7413,4.7463,4.7587,4.7595,4.7602,4.7658,4.7674,4.7687,0,0,0,0,0,0,4.7138,4.7172,4.7159,4.7251,4.7283,4.7311,4.7358,4.7342,4.7382,4.7374,4.7366,4.7373,4.7451,4.7464,4.7419,4.7556,4.7507,4.7518,4.7544,4.7559,4.7571,4.7565,4.7369,0,0,0,0,0,4.716,4.7214,4.7239,4.7318,4.7335,4.7344,4.7373,4.7367,4.7398,4.7411,4.7427,4.7456,4.7501,4.7531,4.7574,4.7666,4.7671,4.7707,4.7719,4.7729,4.7738,4.7785,4.7801,4.7631,4.7631,4.7631,0,0,4.7205,4.723,4.7264,4.7329,4.7352,4.7405,4.7355,4.7413,4.7452,4.7418,4.7491,4.7504,4.7535,4.7619,4.7656,4.7632,4.7786,4.7739,4.7746,4.775,4.7795,4.7811,4.7825,4.7636,4.7635,4.7634,0,0,4.7314,4.734,4.7407,4.7433,4.747,4.7476,4.7492,4.7524,4.7532,4.7605,4.758,4.7625,4.7704,4.7727,4.7749,4.7867,4.7845,4.7881,4.7943,4.799,4.8003,4.8015,4.8055,4.807,4.789,4.7891,4.7891,0,4.7364,4.7446,4.7443,4.7504,4.7532,4.7507,4.7574,4.7598,4.7646,4.7665,4.7638,4.7737,4.7756,4.7844,4.7873,4.7893,4.7909,4.7877,4.8002,4.8014,4.8025,4.8063,4.8078,4.7895,4.7894,4.7894,4.7893,0,4.7504,4.7561,4.7611,4.7661,4.7695,4.7758,4.7764,4.7797,4.7789,4.7797,4.787,4.7893,4.794,4.7961,4.7952,4.8047,4.8031,4.8004,4.7954,4.8045,4.8081,4.8096,4.79,4.7899,4.7898,4.7897,0,0,4.7644,4.7694,4.7712,4.7734,4.7774,4.7816,4.7878,4.7926,4.7954,4.7988,4.8038,4.8106,4.8081,4.8106,4.81,4.8141,4.8231,4.8108,4.8109,4.8129,4.8335,4.8354,4.8371,4.8217,4.822,4.8222,4.8331,0,4.7754,4.7865,4.7865,4.7965,4.8016,4.7993,4.8046,4.8075,4.8084,4.8126,4.8135,4.8183,4.8147,4.8162,4.8202,4.8212,4.8272,4.8204,4.826,4.8263,4.8252,4.839,4.8411,4.8512,4.8345,4.8348,4.835,0,4.7897,4.7939,4.8045,4.8077,4.8098,4.8146,4.819,4.8232,4.8263,4.8267,4.8296,4.8283,4.8343,4.8293,4.8374,4.8328,4.8351,4.8359,4.8363,4.8366,4.831,4.8395,4.8545,4.8559,4.8372,4.837,4.8368,0,4.7986,4.8069,4.8143,4.8163,4.8202,4.8236,4.8254,4.8282,4.8311,4.8348,4.8367,4.841,4.8433,4.8465,4.8464,4.8428,4.8545,4.8496,4.8547,4.8547,4.8571,4.8569,4.8725,4.859,4.8589,4.8589,4.8589,0,4.8108,4.8173,4.8183,4.8229,4.8301,4.8299,4.8369,4.8383,4.8409,4.8455,4.8437,4.848,4.8476,4.8519,4.8518,4.8584,4.8595,4.8597,4.8596,4.8598,4.8597,4.8611,4.8603,4.8593,4.8592,4.8591,4.8591,0,4.8219,4.8229,4.8308,4.834,4.8349,4.84,4.8426,4.8468,4.8476,4.8534,4.8547,4.8558,4.8607,4.861,4.8666,4.8665,4.8745,4.8737,4.8735,4.8733,4.8784,4.8778,4.8952,4.8974,4.8826,4.8828,4.8829,0,4.8295,4.8345,4.8383,4.8414,4.8434,4.8483,4.8513,4.8513,4.8545,4.8584,4.862,4.8669,4.8707,4.8786,4.8797,4.8839,4.8831,4.8889,4.8836,4.8837,4.8829,4.8826,4.883,4.8898,4.89,4.8901,4.8902,0,4.8428,4.8431,4.8476,4.8523,4.856,4.8596,4.863,4.8655,4.8659,4.8695,4.8746,4.8776,4.8834,4.8881,4.8922,4.8937,4.892,4.8919,4.8933,4.8934,4.8931,4.8931,4.8761,4.8914,4.8913,4.8912,4.8911,4.8911,4.8522,4.8566,4.8599,4.865,4.8676,4.8708,4.8749,4.8763,4.8807,4.8856,4.8853,4.8909,4.8937,4.8991,4.901,4.9052,4.9032,4.9052,4.9057,4.9062,4.9066,4.8926,4.906,4.9059,4.9059,4.9059,4.9059,0,4.8653,4.8674,4.8721,4.877,4.8809,4.8793,4.8829,4.8862,4.8913,4.8943,4.8982,4.904,4.9085,4.9101,4.9145,4.9175,4.9168,4.9186,4.9183,4.9186,4.9083,4.9066,4.9191,4.9191,4.9191,4.9191,4.9191,4.9191,4.8725,4.8797,4.8804,4.8888,4.8907,4.8965,4.8987,4.9015,4.9039,4.9106,4.9144,4.9156,4.9179,4.9224,4.9265,4.9268,4.9284,4.9305,4.9305,4.9207,4.9194,4.9181,4.9165,4.9309,4.9309,4.9404,4.9405,4.9406]}]]